Showing default

SOAP, 63263

Orbit data source: Space-Track

SOAP, 63263 is a payload satellite owned by U-Space (FR) in SSO that was launched on Sat, 15 Mar 2025 UTC via an FALCON 9 launch vehicle from the Air Force Western Test Range (AFWTR). Payload-class satellites include a variety of spacecraft equipped with specific instruments for various scientific and technological missions. These include communications satellites like Starlink; space stations such as the ISS; scientific satellites like the Hubble; Earth observation satellites from companies like Planet Labs, Umbra, and HawkEye 360; GPS; miniature CubeSats for education and research; and military/defense satellites.

Loading next visibility...
Identifier
63263, 2025-052BF
Orbit
SSO
Country
Flag of FRFR
Related business
Manufacturer
U-Space
Mission
Operational Commercial Technology
Bus & Motor
CUBESAT 12U, Unknown motor
Mass
~16 kg wet, ~16 kg dry
Launch date (UTC)
2025-03-15 (1 year ago)
Launch vehicle
FALCON 9
Launch site
Air Force Western Test Range (AFWTR)
Object type
Payload
Rocket body
Debris
Shape & HBR
Box + 2 Pan, 1.0 m
Radar Cross Section
0.155 m², Medium (>0.1 m² and < 1m²)

Expand to show TLE details & history
Last TLE update: 10 hours ago

TLE from 10 hours ago
0 SOAP
1 63263U 25052BF  26255.25482934  .00002382  00000-0  21109-3 0  9992
2 63263  97.6728 146.0296 0003794  65.5146 294.6471 14.97160889 81712
Epoch: 2026-09-12T06:06Z
TLE epoch observation values (Epoch: 2026-09-12T06:06:57.254Z)
Latitude
-0.00009°
Longitude
63.02459°
Altitude
577.626 km
Speed
7.572 km/s
True Right ascension
09h 44m 07s
True Declination
0° 00' 00"
Sunlit
Object was in daylight at epoch
Visualization orbit readout
Latitude
Unknown
Longitude
Unknown
Altitude
Unknown
Speed
Unknown
Apparent Right ascension
Unknown
Apparent Declination
Unknown
Sunlit
N/A
Visualization observer readout
Local Sidereal Time
08:55:27
Azimuth
Unknown
Elevation
Unknown
Doppler factor
Unknown
Orbital elements
Apogee altitude
575.319 km
Perigee altitude
570.044 km
Semi-major axis
6,950.818 km
Eccentricity
0.00038
Inclination
97.6728°
RAAN
146.0296°
Arg. of periapsis
65.5146°
True anomaly
294.60758°
Mean anomaly
294.6471°
Eccentric anomaly
294.62734°
Mean motion
3.74532 °/min
Orbital period
96.12 mins
BSTAR
0.00021109
Loading maneuver chart data...
Computing Atmospheric mass density...
Loading historical data...
Loading historical data...
Loading historical data...
Loading historical data...
Loading historical data...
Loading historical data...
Loading historical data...

Documentation

Showing up to 5 results
|